Location: Newark
(48.4281°N, 5.9947°E)
Time: 16:09:29
(UTC+00:00)

N. Korean satellite - Visible Passes

Search period start: 15 October 2019 00:00
Search period end: 25 October 2019 00:00
Orbit: 455 x 508 km, 97.2° (Epoch: 14 October)

Date Brightness Start Highest point End Pass type
(mag) Time Alt. Az. Time Alt. Az. Time Alt. Az.
15 Oct 7.7 05:21:20 10° NNE 05:24:49 50° E 05:28:20 10° S visible
15 Oct 9.9 17:34:47 10° SW 17:37:13 18° W 17:39:41 10° NW visible
16 Oct 9.2 04:56:23 10° NE 04:59:26 26° E 05:02:29 10° SSE visible
17 Oct 10.1 04:31:59 10° ENE 04:33:57 14° E 04:35:55 10° ESE visible
18 Oct 10.3 17:53:38 10° WSW 17:54:53 12° W 17:56:09 10° WNW visible
19 Oct 8.2 05:13:35 10° NNE 05:17:01 41° E 05:20:29 10° S visible
19 Oct 9.5 17:26:37 10° SSW 17:29:21 22° W 17:32:07 10° NW visible
20 Oct 9.5 04:48:44 10° NE 04:51:36 22° E 04:54:28 10° SE visible
21 Oct 10.3 04:24:41 10° ENE 04:26:05 12° E 04:27:28 10° ESE visible
22 Oct 7.1 05:30:55 10° NNE 05:34:32 68° E 05:38:11 10° S visible
22 Oct 10.1 17:45:02 10° SW 17:46:58 14° W 17:48:55 10° NW visible
23 Oct 8.6 05:05:50 10° NNE 05:09:10 34° E 05:12:33 10° SSE visible
23 Oct 9.1 17:18:29 10° SSW 17:21:27 27° W 17:24:28 10° NW visible
24 Oct 9.8 04:41:06 10° NE 04:43:42 18° E 04:46:20 10° SE visible
